Time,TemperatureF,DewpointF,PressureIn,WindDirection,WindDirectionDegrees,WindSpeedMPH,WindSpeedGustMPH,Humidity,HourlyPrecipIn,Conditions,Clouds,dailyrainin,SoftwareType,DateUTC
2013-05-26 00:05:00,62.0,55.1,30.15,SW,232,3.0,6.0,78,0.00,,,0.00,Wunderground v.1.15,2013-05-26 04:05:00,
2013-05-26 00:10:00,61.8,54.9,30.15,SW,229,3.0,3.0,78,0.00,,,0.00,Wunderground v.1.15,2013-05-26 04:10:00,
2013-05-26 00:15:00,61.6,55.0,30.15,WSW,237,3.0,3.0,79,0.00,,,0.00,Wunderground v.1.15,2013-05-26 04:15:00,
2013-05-26 00:20:00,61.4,54.8,30.15,SW,219,3.0,3.0,79,0.00,,,0.00,Wunderground v.1.15,2013-05-26 04:20:00,
2013-05-26 00:25:00,61.3,54.7,30.15,SW,232,3.0,4.0,79,0.00,,,0.00,Wunderground v.1.15,2013-05-26 04:25:00,
2013-05-26 00:35:00,60.9,54.7,30.15,SW,230,3.0,4.0,80,0.00,,,0.00,Wunderground v.1.15,2013-05-26 04:35:00,
2013-05-26 00:45:00,60.7,54.5,30.15,SW,232,3.0,4.0,80,0.00,,,0.00,Wunderground v.1.15,2013-05-26 04:45:00,
2013-05-26 00:55:00,60.5,54.6,30.15,SW,219,3.0,5.0,81,0.00,,,0.00,Wunderground v.1.15,2013-05-26 04:55:00,
2013-05-26 01:05:00,60.4,54.5,30.14,SW,223,3.0,3.0,81,0.00,,,0.00,Wunderground v.1.15,2013-05-26 05:05:00,
2013-05-26 01:15:00,60.2,54.3,30.14,SW,223,3.0,5.0,81,0.00,,,0.00,Wunderground v.1.15,2013-05-26 05:15:00,
2013-05-26 01:25:00,60.0,54.5,30.14,WSW,238,3.0,3.0,82,0.00,,,0.00,Wunderground v.1.15,2013-05-26 05:25:00,
2013-05-26 01:35:00,59.8,54.3,30.14,SW,223,2.0,4.0,82,0.00,,,0.00,Wunderground v.1.15,2013-05-26 05:35:00,
2013-05-26 01:45:00,59.6,54.1,30.14,WSW,250,2.0,3.0,82,0.00,,,0.00,Wunderground v.1.15,2013-05-26 05:45:00,
2013-05-26 01:55:00,59.5,54.0,30.13,WSW,251,1.0,3.0,82,0.00,,,0.00,Wunderground v.1.15,2013-05-26 05:55:00,
2013-05-26 02:05:00,59.4,53.9,30.13,SW,222,2.0,4.0,82,0.00,,,0.00,Wunderground v.1.15,2013-05-26 06:05:00,
2013-05-26 02:15:00,59.3,54.1,30.13,WSW,249,2.0,3.0,83,0.00,,,0.00,Wunderground v.1.15,2013-05-26 06:15:00,
2013-05-26 02:25:00,59.4,54.2,30.13,WSW,239,2.0,3.0,83,0.00,,,0.00,Wunderground v.1.15,2013-05-26 06:25:00,
2013-05-26 02:35:00,59.3,54.1,30.13,West,259,2.0,2.0,83,0.00,,,0.00,Wunderground v.1.15,2013-05-26 06:35:00,
2013-05-26 02:45:00,59.2,54.0,30.13,West,259,1.0,2.0,83,0.00,,,0.00,Wunderground v.1.15,2013-05-26 06:45:00,
2013-05-26 02:55:00,59.1,54.3,30.12,West,259,1.0,1.0,84,0.00,,,0.00,Wunderground v.1.15,2013-05-26 06:55:00,
2013-05-26 03:05:00,59.0,54.2,30.13,WSW,252,2.0,2.0,84,0.00,,,0.00,Wunderground v.1.15,2013-05-26 07:05:00,
2013-05-26 03:15:00,59.0,54.2,30.12,SW,231,1.0,3.0,84,0.00,,,0.00,Wunderground v.1.15,2013-05-26 07:15:00,
2013-05-26 03:25:00,58.9,54.1,30.12,SW,231,2.0,2.0,84,0.00,,,0.00,Wunderground v.1.15,2013-05-26 07:25:00,
2013-05-26 03:35:00,58.8,54.0,30.12,WSW,242,2.0,3.0,84,0.00,,,0.00,Wunderground v.1.15,2013-05-26 07:35:00,
2013-05-26 03:45:00,58.6,53.8,30.12,WSW,242,2.0,2.0,84,0.00,,,0.00,Wunderground v.1.15,2013-05-26 07:45:00,
2013-05-26 03:55:00,58.5,54.0,30.12,WSW,242,1.0,2.0,85,0.00,,,0.00,Wunderground v.1.15,2013-05-26 07:55:00,
2013-05-26 04:05:00,58.4,53.9,30.12,WSW,242,0.0,1.0,85,0.00,,,0.00,Wunderground v.1.15,2013-05-26 08:05:00,
2013-05-26 04:15:00,58.3,53.8,30.12,WSW,242,1.0,2.0,85,0.00,,,0.00,Wunderground v.1.15,2013-05-26 08:15:00,
2013-05-26 04:25:00,58.4,54.2,30.12,WSW,242,1.0,2.0,86,0.00,,,0.00,Wunderground v.1.15,2013-05-26 08:25:00,
2013-05-26 04:35:00,58.6,54.1,30.13,WSW,250,1.0,2.0,85,0.00,,,0.00,Wunderground v.1.15,2013-05-26 08:35:00,
2013-05-26 04:40:00,58.6,54.4,30.12,WSW,243,2.0,3.0,86,0.00,,,0.00,Wunderground v.1.15,2013-05-26 08:40:00,
2013-05-26 04:50:00,58.6,54.4,30.13,WSW,255,3.0,3.0,86,0.00,,,0.00,Wunderground v.1.15,2013-05-26 08:50:00,
2013-05-26 04:55:00,58.8,54.6,30.13,WSW,258,2.0,5.0,86,0.00,,,0.00,Wunderground v.1.15,2013-05-26 08:55:00,
2013-05-26 05:05:00,58.9,54.7,30.13,WSW,246,2.0,2.0,86,0.00,,,0.00,Wunderground v.1.15,2013-05-26 09:05:00,
2013-05-26 05:15:00,59.0,54.8,30.14,NNW,330,3.0,4.0,86,0.00,,,0.00,Wunderground v.1.15,2013-05-26 09:15:00,
2013-05-26 05:25:00,58.4,54.2,30.15,NNW,333,3.0,4.0,86,0.00,,,0.00,Wunderground v.1.15,2013-05-26 09:25:00,
2013-05-26 05:35:00,57.9,54.1,30.16,NNW,333,2.0,3.0,87,0.00,,,0.00,Wunderground v.1.15,2013-05-26 09:35:00,
2013-05-26 05:45:00,57.7,53.9,30.16,NNW,339,1.0,2.0,87,0.00,,,0.00,Wunderground v.1.15,2013-05-26 09:45:00,
2013-05-26 05:55:00,57.7,53.9,30.16,NNW,339,1.0,1.0,87,0.00,,,0.00,Wunderground v.1.15,2013-05-26 09:55:00,
2013-05-26 06:05:00,57.5,54.0,30.16,NNW,339,0.0,1.0,88,0.00,,,0.00,Wunderground v.1.15,2013-05-26 10:05:00,
2013-05-26 06:15:00,57.4,53.9,30.17,NNW,339,0.0,0.0,88,0.00,,,0.00,Wunderground v.1.15,2013-05-26 10:15:00,
2013-05-26 06:25:00,57.6,53.8,30.18,NNW,338,1.0,1.0,87,0.00,,,0.00,Wunderground v.1.15,2013-05-26 10:25:00,
2013-05-26 06:35:00,57.9,54.4,30.18,NNW,338,0.0,1.0,88,0.00,,,0.00,Wunderground v.1.15,2013-05-26 10:35:00,
2013-05-26 06:45:00,58.0,54.5,30.18,NNW,338,0.0,0.0,88,0.00,,,0.00,Wunderground v.1.15,2013-05-26 10:45:00,
2013-05-26 06:50:00,58.3,54.8,30.18,NNW,338,0.0,0.0,88,0.00,,,0.00,Wunderground v.1.15,2013-05-26 10:50:00,
2013-05-26 07:00:00,58.6,54.7,30.18,NNW,338,1.0,1.0,87,0.00,,,0.00,Wunderground v.1.15,2013-05-26 11:00:00,
2013-05-26 07:10:00,59.0,55.1,30.18,NNW,338,0.0,2.0,87,0.00,,,0.00,Wunderground v.1.15,2013-05-26 11:10:00,
2013-05-26 07:20:00,59.2,55.0,30.18,WNW,295,1.0,2.0,86,0.00,,,0.00,Wunderground v.1.15,2013-05-26 11:20:00,
2013-05-26 07:30:00,59.3,54.5,30.18,NW,315,2.0,2.0,84,0.00,,,0.00,Wunderground v.1.15,2013-05-26 11:30:00,
2013-05-26 07:40:00,59.6,53.8,30.19,NW,315,1.0,1.0,81,0.00,,,0.00,Wunderground v.1.15,2013-05-26 11:40:00,
2013-05-26 07:50:00,59.6,52.7,30.19,North,355,1.0,2.0,78,0.00,,,0.00,Wunderground v.1.15,2013-05-26 11:50:00,
2013-05-26 08:00:00,59.6,52.4,30.19,NNE,19,2.0,2.0,77,0.00,,,0.00,Wunderground v.1.15,2013-05-26 12:00:00,
2013-05-26 08:10:00,60.0,51.7,30.19,NNE,12,2.0,2.0,74,0.00,,,0.00,Wunderground v.1.15,2013-05-26 12:10:00,
2013-05-26 08:15:00,60.4,51.3,30.19,NNE,22,2.0,3.0,72,0.00,,,0.00,Wunderground v.1.15,2013-05-26 12:15:00,
2013-05-26 08:25:00,60.7,51.2,30.19,North,5,3.0,3.0,71,0.00,,,0.00,Wunderground v.1.15,2013-05-26 12:25:00,
2013-05-26 08:35:00,60.7,50.1,30.20,NNE,33,4.0,7.0,68,0.00,,,0.00,Wunderground v.1.15,2013-05-26 12:35:00,
2013-05-26 08:45:00,60.5,50.3,30.20,NE,41,4.0,4.0,69,0.00,,,0.00,Wunderground v.1.15,2013-05-26 12:45:00,
2013-05-26 08:50:00,60.4,49.8,30.21,NNE,17,4.0,6.0,68,0.00,,,0.00,Wunderground v.1.15,2013-05-26 12:50:00,
2013-05-26 09:00:00,60.6,50.4,30.21,NNE,23,2.0,2.0,69,0.00,,,0.00,Wunderground v.1.15,2013-05-26 13:00:00,
2013-05-26 09:10:00,61.1,51.2,30.22,NW,325,2.0,2.0,70,0.00,,,0.00,Wunderground v.1.15,2013-05-26 13:10:00,
2013-05-26 09:20:00,61.0,50.4,30.22,NE,47,2.0,2.0,68,0.00,,,0.00,Wunderground v.1.15,2013-05-26 13:20:00,
2013-05-26 09:30:00,61.6,50.5,30.23,NNE,24,3.0,4.0,67,0.00,,,0.00,Wunderground v.1.15,2013-05-26 13:30:00,
2013-05-26 09:40:00,61.9,51.2,30.23,NNE,22,2.0,2.0,68,0.00,,,0.00,Wunderground v.1.15,2013-05-26 13:40:00,
2013-05-26 09:50:00,62.6,51.1,30.23,NNW,340,2.0,2.0,66,0.00,,,0.00,Wunderground v.1.15,2013-05-26 13:50:00,
2013-05-26 10:00:00,63.0,50.6,30.23,NW,318,2.0,2.0,64,0.00,,,0.00,Wunderground v.1.15,2013-05-26 14:00:00,
2013-05-26 10:10:00,63.5,51.1,30.23,NE,38,2.0,2.0,64,0.00,,,0.00,Wunderground v.1.15,2013-05-26 14:10:00,
2013-05-26 10:20:00,64.3,51.4,30.23,NNE,13,1.0,2.0,63,0.00,,,0.00,Wunderground v.1.15,2013-05-26 14:20:00,
2013-05-26 10:30:00,64.1,50.4,30.23,NNE,15,2.0,2.0,61,0.00,,,0.00,Wunderground v.1.15,2013-05-26 14:30:00,
2013-05-26 10:40:00,64.5,49.8,30.23,NNW,336,2.0,2.0,59,0.00,,,0.00,Wunderground v.1.15,2013-05-26 14:40:00,
2013-05-26 10:50:00,65.6,50.9,30.23,NNE,19,2.0,2.0,59,0.00,,,0.00,Wunderground v.1.15,2013-05-26 14:50:00,
2013-05-26 11:00:00,65.8,50.1,30.23,North,355,2.0,2.0,57,0.00,,,0.00,Wunderground v.1.15,2013-05-26 15:00:00,
2013-05-26 11:10:00,66.3,51.1,30.23,West,278,2.0,2.0,58,0.00,,,0.00,Wunderground v.1.15,2013-05-26 15:10:00,
2013-05-26 11:20:00,66.7,48.5,30.22,North,355,1.0,1.0,52,0.00,,,0.00,Wunderground v.1.15,2013-05-26 15:20:00,
2013-05-26 11:30:00,67.0,49.8,30.22,NNW,347,1.0,1.0,54,0.00,,,0.00,Wunderground v.1.15,2013-05-26 15:30:00,
2013-05-26 11:40:00,68.2,50.4,30.22,NNW,342,2.0,2.0,53,0.00,,,0.00,Wunderground v.1.15,2013-05-26 15:40:00,
2013-05-26 11:50:00,68.5,50.7,30.22,NW,322,2.0,2.0,53,0.00,,,0.00,Wunderground v.1.15,2013-05-26 15:50:00,
2013-05-26 12:00:00,68.5,50.7,30.22,NNE,28,3.0,5.0,53,0.00,,,0.00,Wunderground v.1.15,2013-05-26 16:00:00,
2013-05-26 12:10:00,68.8,50.5,30.21,SE,126,3.0,4.0,52,0.00,,,0.00,Wunderground v.1.15,2013-05-26 16:10:00,
2013-05-26 12:15:00,69.1,51.2,30.21,SW,217,2.0,4.0,53,0.00,,,0.00,Wunderground v.1.15,2013-05-26 16:15:00,
2013-05-26 12:25:00,69.5,50.6,30.21,North,351,4.0,5.0,51,0.00,,,0.00,Wunderground v.1.15,2013-05-26 16:25:00,
2013-05-26 12:35:00,69.8,50.3,30.21,North,360,3.0,4.0,50,0.00,,,0.00,Wunderground v.1.15,2013-05-26 16:35:00,
2013-05-26 12:45:00,69.9,51.5,30.21,North,355,3.0,5.0,52,0.00,,,0.00,Wunderground v.1.15,2013-05-26 16:45:00,
2013-05-26 12:55:00,70.6,48.8,30.21,NNE,24,3.0,3.0,46,0.00,,,0.00,Wunderground v.1.15,2013-05-26 16:55:00,
2013-05-26 13:05:00,70.8,49.6,30.20,ESE,105,3.0,3.0,47,0.00,,,0.00,Wunderground v.1.15,2013-05-26 17:05:00,
2013-05-26 13:15:00,71.0,50.3,30.20,East,97,3.0,6.0,48,0.00,,,0.00,Wunderground v.1.15,2013-05-26 17:15:00,
2013-05-26 13:20:00,71.2,53.2,30.20,ESE,103,2.0,5.0,53,0.00,,,0.00,Wunderground v.1.15,2013-05-26 17:20:00,
2013-05-26 13:25:00,71.5,49.6,30.20,ESE,102,3.0,5.0,46,0.00,,,0.00,Wunderground v.1.15,2013-05-26 17:25:00,
2013-05-26 13:35:00,72.5,48.7,30.19,NW,318,2.0,4.0,43,0.00,,,0.00,Wunderground v.1.15,2013-05-26 17:35:00,
2013-05-26 13:40:00,72.9,48.5,30.19,NNW,334,1.0,1.0,42,0.00,,,0.00,Wunderground v.1.15,2013-05-26 17:40:00,
2013-05-26 13:50:00,73.3,46.8,30.18,NNW,331,2.0,2.0,39,0.00,,,0.00,Wunderground v.1.15,2013-05-26 17:50:00,
2013-05-26 14:00:00,73.4,46.2,30.18,NNE,13,2.0,3.0,38,0.00,,,0.00,Wunderground v.1.15,2013-05-26 18:00:00,
2013-05-26 14:10:00,73.5,47.0,30.18,NNW,329,2.0,4.0,39,0.00,,,0.00,Wunderground v.1.15,2013-05-26 18:10:00,
2013-05-26 14:20:00,74.7,45.2,30.19,NW,323,2.0,2.0,35,0.00,,,0.00,Wunderground v.1.15,2013-05-26 18:20:00,
2013-05-26 14:30:00,74.0,43.8,30.18,NNE,28,3.0,3.0,34,0.00,,,0.00,Wunderground v.1.15,2013-05-26 18:30:00,
2013-05-26 14:40:00,74.2,46.2,30.17,NNE,30,1.0,3.0,37,0.00,,,0.00,Wunderground v.1.15,2013-05-26 18:40:00,
2013-05-26 14:45:00,74.6,45.1,30.17,East,101,2.0,3.0,35,0.00,,,0.00,Wunderground v.1.15,2013-05-26 18:45:00,
2013-05-26 14:55:00,74.7,45.2,30.17,ENE,74,4.0,4.0,35,0.00,,,0.00,Wunderground v.1.15,2013-05-26 18:55:00,
2013-05-26 15:05:00,75.0,46.2,30.17,NE,46,3.0,3.0,36,0.00,,,0.00,Wunderground v.1.15,2013-05-26 19:05:00,
2013-05-26 15:15:00,75.2,46.4,30.17,NNE,31,3.0,4.0,36,0.00,,,0.00,Wunderground v.1.15,2013-05-26 19:15:00,
2013-05-26 15:25:00,75.5,45.2,30.16,WSW,244,3.0,4.0,34,0.00,,,0.00,Wunderground v.1.15,2013-05-26 19:25:00,
2013-05-26 15:30:00,76.0,47.1,30.16,NW,308,3.0,3.0,36,0.00,,,0.00,Wunderground v.1.15,2013-05-26 19:30:00,
2013-05-26 15:40:00,76.4,46.7,30.15,NW,313,3.0,3.0,35,0.00,,,0.00,Wunderground v.1.15,2013-05-26 19:40:00,
2013-05-26 15:50:00,76.3,48.1,30.15,North,355,3.0,3.0,37,0.00,,,0.00,Wunderground v.1.15,2013-05-26 19:50:00,
2013-05-26 16:00:00,76.2,45.8,30.15,NE,50,2.0,2.0,34,0.00,,,0.00,Wunderground v.1.15,2013-05-26 20:00:00,
2013-05-26 16:10:00,76.6,49.8,30.14,WNW,303,4.0,4.0,39,0.00,,,0.00,Wunderground v.1.15,2013-05-26 20:10:00,
2013-05-26 16:20:00,76.6,48.4,30.15,WNW,296,3.0,3.0,37,0.00,,,0.00,Wunderground v.1.15,2013-05-26 20:20:00,
2013-05-26 16:30:00,76.7,47.7,30.15,WNW,287,3.0,3.0,36,0.00,,,0.00,Wunderground v.1.15,2013-05-26 20:30:00,
2013-05-26 16:40:00,76.8,49.3,30.15,WNW,291,3.0,3.0,38,0.00,,,0.00,Wunderground v.1.15,2013-05-26 20:40:00,
2013-05-26 16:50:00,77.4,49.8,30.15,NNE,20,3.0,3.0,38,0.00,,,0.00,Wunderground v.1.15,2013-05-26 20:50:00,
2013-05-26 17:00:00,77.2,48.2,30.15,West,273,4.0,4.0,36,0.00,,,0.00,Wunderground v.1.15,2013-05-26 21:00:00,
2013-05-26 17:10:00,77.9,48.8,30.15,WNW,296,3.0,5.0,36,0.00,,,0.00,Wunderground v.1.15,2013-05-26 21:10:00,
2013-05-26 17:20:00,77.0,48.7,30.15,WSW,258,5.0,7.0,37,0.00,,,0.00,Wunderground v.1.15,2013-05-26 21:20:00,
2013-05-26 17:30:00,76.7,49.2,30.15,NE,38,4.0,4.0,38,0.00,,,0.00,Wunderground v.1.15,2013-05-26 21:30:00,
2013-05-26 17:35:00,76.7,49.9,30.15,NW,321,4.0,4.0,39,0.00,,,0.00,Wunderground v.1.15,2013-05-26 21:35:00,
2013-05-26 17:40:00,77.2,51.0,30.15,NW,319,3.0,4.0,40,0.00,,,0.00,Wunderground v.1.15,2013-05-26 21:40:00,
2013-05-26 17:50:00,76.8,49.3,30.15,NNW,340,3.0,3.0,38,0.00,,,0.00,Wunderground v.1.15,2013-05-26 21:50:00,
2013-05-26 18:00:00,76.5,48.3,30.15,NNW,327,3.0,3.0,37,0.00,,,0.00,Wunderground v.1.15,2013-05-26 22:00:00,
2013-05-26 18:10:00,76.3,50.2,30.15,NNW,327,1.0,1.0,40,0.00,,,0.00,Wunderground v.1.15,2013-05-26 22:10:00,
2013-05-26 18:20:00,76.3,48.8,30.14,North,355,1.0,1.0,38,0.00,,,0.00,Wunderground v.1.15,2013-05-26 22:20:00,
2013-05-26 18:30:00,75.2,52.4,30.15,SE,133,2.0,2.0,45,0.00,,,0.00,Wunderground v.1.15,2013-05-26 22:30:00,
2013-05-26 18:40:00,74.9,52.1,30.14,SE,146,4.0,4.0,45,0.00,,,0.00,Wunderground v.1.15,2013-05-26 22:40:00,
2013-05-26 18:50:00,74.7,51.9,30.14,South,179,4.0,6.0,45,0.00,,,0.00,Wunderground v.1.15,2013-05-26 22:50:00,
2013-05-26 19:00:00,74.4,52.9,30.15,SSE,159,4.0,4.0,47,0.00,,,0.00,Wunderground v.1.15,2013-05-26 23:00:00,
2013-05-26 19:10:00,74.0,53.1,30.15,SE,142,4.0,4.0,48,0.00,,,0.00,Wunderground v.1.15,2013-05-26 23:10:00,
2013-05-26 19:15:00,73.9,54.1,30.15,South,178,4.0,4.0,50,0.00,,,0.00,Wunderground v.1.15,2013-05-26 23:15:00,
2013-05-26 19:25:00,73.5,54.8,30.15,SSE,153,4.0,4.0,52,0.00,,,0.00,Wunderground v.1.15,2013-05-26 23:25:00,
2013-05-26 19:35:00,73.1,53.4,30.15,SSE,162,4.0,4.0,50,0.00,,,0.00,Wunderground v.1.15,2013-05-26 23:35:00,
2013-05-26 19:45:00,72.5,52.2,30.15,SSW,198,3.0,5.0,49,0.00,,,0.00,Wunderground v.1.15,2013-05-26 23:45:00,
2013-05-26 19:55:00,72.1,52.4,30.16,South,177,2.0,2.0,50,0.00,,,0.00,Wunderground v.1.15,2013-05-26 23:55:00,
2013-05-26 20:05:00,71.9,51.1,30.16,South,175,2.0,3.0,48,0.00,,,0.00,Wunderground v.1.15,2013-05-27 00:05:00,
2013-05-26 20:15:00,71.4,51.2,30.16,South,174,1.0,2.0,49,0.00,,,0.00,Wunderground v.1.15,2013-05-27 00:15:00,
2013-05-26 20:25:00,71.1,51.0,30.16,SW,225,1.0,2.0,49,0.00,,,0.00,Wunderground v.1.15,2013-05-27 00:25:00,
2013-05-26 20:35:00,70.7,50.6,30.16,SW,219,1.0,2.0,49,0.00,,,0.00,Wunderground v.1.15,2013-05-27 00:35:00,
2013-05-26 20:40:00,70.4,50.9,30.16,SW,219,1.0,1.0,50,0.00,,,0.00,Wunderground v.1.15,2013-05-27 00:40:00,
2013-05-26 20:50:00,70.0,51.0,30.16,SW,219,0.0,0.0,51,0.00,,,0.00,Wunderground v.1.15,2013-05-27 00:50:00,
2013-05-26 21:00:00,70.0,51.6,30.17,SW,219,0.0,0.0,52,0.00,,,0.00,Wunderground v.1.15,2013-05-27 01:00:00,
2013-05-26 21:10:00,69.3,51.9,30.17,SSW,203,1.0,2.0,54,0.00,,,0.00,Wunderground v.1.15,2013-05-27 01:10:00,
2013-05-26 21:20:00,69.2,51.8,30.17,SSW,203,1.0,1.0,54,0.00,,,0.00,Wunderground v.1.15,2013-05-27 01:20:00,
2013-05-26 21:30:00,69.0,51.7,30.17,SSW,203,0.0,0.0,54,0.00,,,0.00,Wunderground v.1.15,2013-05-27 01:30:00,
2013-05-26 21:40:00,67.0,53.1,30.17,SSW,203,0.0,0.0,61,0.00,,,0.00,Wunderground v.1.15,2013-05-27 01:40:00,
2013-05-26 21:50:00,64.9,53.3,30.18,NE,50,2.0,2.0,66,0.00,,,0.00,Wunderground v.1.15,2013-05-27 01:50:00,
2013-05-26 21:55:00,64.2,53.4,30.17,NE,50,2.0,2.0,68,0.00,,,0.00,Wunderground v.1.15,2013-05-27 01:55:00,
2013-05-26 22:05:00,63.5,53.5,30.18,NE,50,0.0,0.0,70,0.00,,,0.00,Wunderground v.1.15,2013-05-27 02:05:00,
2013-05-26 22:15:00,63.6,53.6,30.18,NE,50,0.0,0.0,70,0.00,,,0.00,Wunderground v.1.15,2013-05-27 02:15:00,
2013-05-26 22:20:00,63.4,53.8,30.19,NE,50,0.0,0.0,71,0.00,,,0.00,Wunderground v.1.15,2013-05-27 02:20:00,
2013-05-26 22:30:00,63.4,53.8,30.18,NE,50,0.0,0.0,71,0.00,,,0.00,Wunderground v.1.15,2013-05-27 02:30:00,
2013-05-26 22:40:00,63.7,54.1,30.19,NE,50,0.0,0.0,71,0.00,,,0.00,Wunderground v.1.15,2013-05-27 02:40:00,
2013-05-26 22:50:00,63.2,54.0,30.19,NE,50,0.0,0.0,72,0.00,,,0.00,Wunderground v.1.15,2013-05-27 02:50:00,
2013-05-26 23:00:00,62.8,54.4,30.19,NE,50,0.0,0.0,74,0.00,,,0.00,Wunderground v.1.15,2013-05-27 03:00:00,
2013-05-26 23:10:00,63.0,54.2,30.19,NE,50,0.0,0.0,73,0.00,,,0.00,Wunderground v.1.15,2013-05-27 03:10:00,
2013-05-26 23:15:00,62.9,54.5,30.19,NE,50,0.0,0.0,74,0.00,,,0.00,Wunderground v.1.15,2013-05-27 03:15:00,
2013-05-26 23:25:00,63.5,55.1,30.18,NE,50,0.0,0.0,74,0.00,,,0.00,Wunderground v.1.15,2013-05-27 03:25:00,
2013-05-26 23:35:00,62.7,54.7,30.18,NE,50,0.0,0.0,75,0.00,,,0.00,Wunderground v.1.15,2013-05-27 03:35:00,
2013-05-26 23:45:00,62.9,55.2,30.18,NE,50,0.0,0.0,76,0.00,,,0.00,Wunderground v.1.15,2013-05-27 03:45:00,
2013-05-26 23:55:00,61.9,55.0,30.18,NE,50,0.0,0.0,78,0.00,,,0.00,Wunderground v.1.15,2013-05-27 03:55:00,